Weather History for Bentonville, AR

Change the Weather History Date:

Monday, October 1, 2012

  Actual Average Record
Temperature  
Mean Temperature - -  
Max Temperature - 76 °F 95 °F (1953)
Min Temperature - 49 °F 31 °F (1984)
Moisture  
Dew Point -    
Average Humidity    
Maximum Humidity    
Minimum Humidity    
Precipitation  
Precipitation 0.00 in - - ()
Sea Level Pressure  
Sea Level Pressure 29.80 in    
Wind  
Wind Speed 7 mph (North)    
Max Wind Speed 17 mph    
Max Gust Speed 23 mph    
Visibility 10 miles    
Events      
Averages and records for this station are not official NWS values.
T = Trace of Precipitation, MM = Missing Value Source: NWS Daily Summary

Daily Weather History Graph

Daily Weather History Graph

Search for Another Location

Airport:

Trip Planner

Search our weather history database for the weather conditions in past years. The results will help you decide how hot, cold, wet, or windy it might be!

Date:

Astronomy

Oct. 01, 2012 Rise Set
Actual Time 7:12 AM CDT 6:59 PM CDT
Civil Twilight 6:46 AM CDT 7:25 PM CDT
Nautical Twilight 6:16 AM CDT 7:55 PM CDT
Astronomical Twilight 5:46 AM CDT 8:25 PM CDT
Moon 7:41 PM CDT (10/1) 8:38 AM CDT (10/1)
Length of Visible Light 12h 38m
Length of Day
11h 47m
Full, 98% of the Moon is Illuminated
Oct 1
Full
Oct 8
Last Quarter
Oct 15
New
Oct 21
First Quarter
Oct 29
Full

Hourly Weather History & Observations

Time (CDT) Temp. Dew Point Humidity Pressure Visibility Wind Dir Wind Speed Gust Speed Precip Events Conditions
12:35 AM - - N/A% 29.83 in 10.0 mi North 4.6 mph - N/A   Clear
12:55 AM - - N/A% 29.82 in 10.0 mi North 4.6 mph - N/A   Clear
1:15 AM - - N/A% 29.82 in 10.0 mi NNE 6.9 mph - N/A   Partly Cloudy
1:36 AM - - N/A% 29.82 in 10.0 mi NNE 5.8 mph - N/A   Mostly Cloudy
1:55 AM - - N/A% 29.82 in 10.0 mi NNE 5.8 mph - N/A   Mostly Cloudy
2:15 AM - - N/A% 29.82 in 10.0 mi North 6.9 mph - N/A   Scattered Clouds
2:35 AM - - N/A% 29.81 in 10.0 mi North 4.6 mph - N/A   Partly Cloudy
2:55 AM - - N/A% 29.81 in 10.0 mi North 5.8 mph - N/A   Clear
3:15 AM - - N/A% 29.81 in 10.0 mi NNW 3.5 mph - N/A   Clear
3:35 AM - - N/A% 29.80 in 10.0 mi North 4.6 mph - N/A   Clear
3:56 AM - - N/A% 29.80 in 10.0 mi NNE 5.8 mph - N/A   Clear
4:15 AM - - N/A% 29.79 in 10.0 mi NNE 5.8 mph - N/A   Clear
5:15 AM - - N/A% 29.79 in 10.0 mi NNW 3.5 mph - N/A   Clear
5:35 AM - - N/A% 29.79 in 10.0 mi North 4.6 mph - N/A   Clear
6:15 AM - - N/A% 29.80 in 10.0 mi North 4.6 mph - N/A   Partly Cloudy
6:35 AM - - N/A% 29.80 in 10.0 mi North 4.6 mph - N/A   Partly Cloudy
6:55 AM - - N/A% 29.80 in 10.0 mi North 5.8 mph - N/A   Clear
7:35 AM - - N/A% 29.80 in 10.0 mi North 4.6 mph - N/A   Clear
7:55 AM - - N/A% 29.80 in 10.0 mi North 4.6 mph - N/A   Clear
8:16 AM - - N/A% 29.80 in 10.0 mi North 4.6 mph - N/A   Clear
8:35 AM - - N/A% 29.81 in 10.0 mi NNW 4.6 mph - N/A   Clear
9:15 AM - - N/A% 29.82 in 10.0 mi North 4.6 mph - N/A   Clear
9:35 AM - - N/A% 29.82 in 10.0 mi North 5.8 mph - N/A   Clear
10:15 AM - - N/A% 29.81 in 10.0 mi North 5.8 mph - N/A   Clear
10:36 AM - - N/A% 29.81 in 10.0 mi North 5.8 mph - N/A   Clear
10:55 AM - - N/A% 29.81 in 10.0 mi NNE 4.6 mph - N/A   Clear
11:15 AM - - N/A% 29.81 in 10.0 mi North 5.8 mph - N/A   Clear
11:55 AM - - N/A% 29.81 in 10.0 mi NE 8.1 mph - N/A   Clear
12:15 PM - - N/A% 29.81 in 10.0 mi North 11.5 mph - N/A   Clear
1:15 PM - - N/A% 29.80 in 10.0 mi North 13.8 mph 19.6 mph N/A   Clear
1:35 PM - - N/A% 29.79 in 10.0 mi NNW 9.2 mph 17.3 mph N/A   Clear
1:56 PM - - N/A% 29.78 in 10.0 mi North 9.2 mph - N/A   Clear
2:15 PM - - N/A% 29.78 in 10.0 mi NNW 8.1 mph - N/A   Clear
2:56 PM - - N/A% 29.77 in 10.0 mi North 13.8 mph 17.3 mph N/A   Clear
3:15 PM - - N/A% 29.77 in 10.0 mi North 10.4 mph 17.3 mph N/A   Clear
3:35 PM - - N/A% 29.77 in 10.0 mi NNW 17.3 mph 21.9 mph N/A   Clear
3:55 PM - - N/A% 29.77 in 10.0 mi North 15.0 mph 21.9 mph N/A   Clear
4:15 PM - - N/A% 29.77 in 10.0 mi North 13.8 mph - N/A   Clear
4:35 PM - - N/A% 29.77 in 10.0 mi North 16.1 mph - N/A   Clear
5:15 PM - - N/A% 29.77 in 10.0 mi North 13.8 mph 23.0 mph N/A   Clear
5:35 PM - - N/A% 29.77 in 10.0 mi North 13.8 mph 17.3 mph N/A   Clear
5:55 PM - - N/A% 29.78 in 10.0 mi North 15.0 mph 20.7 mph N/A   Clear
6:16 PM - - N/A% 29.78 in 10.0 mi North 10.4 mph 18.4 mph N/A   Clear
6:55 PM - - N/A% 29.78 in 10.0 mi North 6.9 mph - N/A   Clear
7:35 PM - - N/A% 29.79 in 10.0 mi NNW 4.6 mph - N/A   Clear
8:15 PM - - N/A% 29.80 in 10.0 mi NNW 4.6 mph - N/A   Clear
8:36 PM - - N/A% 29.81 in 10.0 mi NNW 6.9 mph - N/A   Clear
8:55 PM - - N/A% 29.81 in 10.0 mi North 9.2 mph - N/A   Clear
9:15 PM - - N/A% 29.82 in 10.0 mi North 9.2 mph - N/A   Clear
9:36 PM - - N/A% 29.83 in 10.0 mi North 11.5 mph - N/A   Clear
9:55 PM - - N/A% 29.83 in 10.0 mi North 10.4 mph - N/A   Clear
10:15 PM - - N/A% 29.84 in 10.0 mi NNE 8.1 mph - N/A   Clear
10:36 PM - - N/A% 29.84 in 10.0 mi NNE 6.9 mph - N/A   Clear
10:55 PM - - N/A% 29.84 in 10.0 mi NE 5.8 mph - N/A   Clear
11:15 PM - - N/A% 29.85 in 10.0 mi North 4.6 mph - N/A   Clear
11:35 PM - - N/A% 29.84 in 10.0 mi North 4.6 mph - N/A   Clear
11:55 PM - - N/A% 29.84 in 10.0 mi North 4.6 mph - N/A   Clear